Wiscasset, ME

1:19 AM EDT on July 25, 2017 (GMT -0400)
Wiscasset

Weather History for KIWI - July, 2013

Change the Weather History Date:

Tuesday, July 30, 2013

  Actual Average Record
Temperature  
Mean Temperature 70 °F -  
Max Temperature 80 °F 76 °F 88 °F (2002)
Min Temperature 59 °F 55 °F 48 °F (1997)
Cooling Degree Days 5    
Growing Degree Days 20 (Base 50)    
Moisture  
Dew Point 62 °F    
Average Humidity 88    
Maximum Humidity 100    
Minimum Humidity 40    
Precipitation  
Precipitation 0.00 in - - ()
Sea Level Pressure  
Sea Level Pressure 30.05 in    
Wind  
Wind Speed 1 mph (West)    
Max Wind Speed 6 mph    
Max Gust Speed -    
Visibility 5 miles    
Events      
Averages and records for this station are not official NWS values.
T = Trace of Precipitation, MM = Missing Value Source: NWS Daily Summary

Daily Weather History Graph

Daily Weather History Graph

Search for Another Location

Airport or City:

Trip Planner

Search our weather history database for the weather conditions in past years. The results will help you decide how hot, cold, wet, or windy it might be!

Date:

Astronomy

Jul. 30, 2013 Rise Set
Actual Time 5:25 AM EDT 8:04 PM EDT
Civil Twilight 4:52 AM EDT 8:37 PM EDT
Nautical Twilight 4:10 AM EDT 9:19 PM EDT
Astronomical Twilight 3:22 AM EDT 10:06 PM EDT
Moon No Moon Rise 2:20 PM EDT (7/30)
Length of Visible Light 15h 45m
Length of Day
14h 39m
Last Quarter, 41% of the Moon is Illuminated
Jul 30
Last Quarter
Aug 6
New
Aug 14
First Quarter
Aug 20
Full
Aug 28
Last Quarter

Hourly Weather History & Observations

Time (EDT) Temp. Dew Point Humidity Pressure Visibility Wind Dir Wind Speed Gust Speed Precip Events Conditions
12:38 AM 64.4 °F 62.6 °F 94% 30.05 in 2.5 mi Calm Calm - N/A   Overcast
12:48 AM 62.6 °F 62.6 °F 100% 30.05 in 1.2 mi Calm Calm - N/A   Overcast
12:49 AM 63.0 °F 63.0 °F 100% 30.06 in 1.2 mi Calm Calm - N/A   Overcast
1:07 AM 64.4 °F 62.6 °F 94% 30.05 in 2.0 mi Calm Calm - N/A   Overcast
1:16 AM 64.4 °F 62.6 °F 94% 30.06 in 3.0 mi Calm Calm - N/A   Overcast
1:24 AM 64.4 °F 62.6 °F 94% 30.06 in 2.0 mi Calm Calm - N/A   Overcast
1:53 AM 64.0 °F 63.0 °F 96% 30.06 in 2.0 mi Calm Calm - N/A   Overcast
2:29 AM 62.6 °F 62.6 °F 100% 30.05 in 1.5 mi Calm Calm - N/A   Overcast
2:36 AM 62.6 °F 62.6 °F 100% 30.05 in 1.0 mi Calm Calm - N/A   Mist
2:43 AM 62.6 °F 62.6 °F 100% 30.04 in 0.8 mi Calm Calm - N/A   Mist
2:53 AM 63.0 °F 62.1 °F 97% 30.04 in 0.8 mi Calm Calm - N/A   Mist
3:02 AM 62.6 °F 62.6 °F 100% 30.04 in 1.0 mi Calm Calm - N/A   Mist
3:21 AM 62.6 °F 62.6 °F 100% 30.04 in 0.8 mi Calm Calm - N/A   Mist
3:31 AM 62.6 °F 62.6 °F 100% 30.03 in 1.0 mi Calm Calm - N/A   Mist
3:53 AM 63.0 °F 62.1 °F 97% 30.03 in 1.2 mi Calm Calm - N/A   Overcast
4:02 AM 62.6 °F 62.6 °F 100% 30.03 in 1.5 mi Calm Calm - N/A   Overcast
4:11 AM 62.6 °F 62.6 °F 100% 30.03 in 1.0 mi Calm Calm - N/A   Mist
4:40 AM 62.6 °F 62.6 °F 100% 30.04 in 0.8 mi West 3.5 mph - N/A   Mist
4:53 AM 63.0 °F 62.1 °F 97% 30.04 in 0.8 mi Calm Calm - N/A   Mist
5:31 AM 62.6 °F 62.6 °F 100% 30.04 in 1.2 mi Calm Calm - N/A   Overcast
5:42 AM 62.6 °F 62.6 °F 100% 30.04 in 1.8 mi Calm Calm - N/A   Overcast
5:51 AM 62.6 °F 62.6 °F 100% 30.04 in 0.8 mi Calm Calm - N/A   Mist
5:53 AM 63.0 °F 62.1 °F 97% 30.04 in 0.8 mi Calm Calm - N/A   Mist
6:12 AM 62.6 °F 62.6 °F 100% 30.04 in 1.2 mi Calm Calm - N/A   Overcast
6:33 AM 62.6 °F 62.6 °F 100% 30.05 in 1.8 mi Calm Calm - N/A   Overcast
6:41 AM 62.6 °F 62.6 °F 100% 30.05 in 2.5 mi Calm Calm - N/A   Overcast
6:53 AM 63.0 °F 63.0 °F 100% 30.06 in 3.0 mi Calm Calm - N/A   Overcast
7:02 AM 62.6 °F 62.6 °F 100% 30.05 in 2.0 mi Calm Calm - N/A   Overcast
7:24 AM 64.4 °F 62.6 °F 94% 30.06 in 1.8 mi Calm Calm - N/A   Overcast
7:53 AM 64.0 °F 63.0 °F 96% 30.06 in 1.2 mi Calm Calm - N/A   Overcast
8:05 AM 64.4 °F 64.4 °F 100% 30.06 in 2.0 mi Calm Calm - N/A   Overcast
8:14 AM 64.4 °F 64.4 °F 100% 30.06 in 6.0 mi Calm Calm - N/A   Mostly Cloudy
8:34 AM 66.2 °F 64.4 °F 94% 30.06 in 10.0 mi Variable 4.6 mph - N/A   Mostly Cloudy
8:39 AM 66.2 °F 62.6 °F 88% 30.06 in 10.0 mi Variable 3.5 mph - N/A   Scattered Clouds
8:53 AM 70.0 °F 64.9 °F 84% 30.07 in 10.0 mi Variable 3.5 mph - N/A   Mostly Cloudy
9:07 AM 69.8 °F 64.4 °F 83% 30.07 in 10.0 mi Calm Calm - N/A   Partly Cloudy
9:53 AM 72.0 °F 63.0 °F 73% 30.07 in 10.0 mi Calm Calm - N/A   Scattered Clouds
10:53 AM 73.0 °F 61.0 °F 66% 30.07 in 10.0 mi WNW 5.8 mph - N/A   Scattered Clouds
11:53 AM 75.9 °F 59.0 °F 56% 30.05 in 10.0 mi Variable 4.6 mph - N/A   Clear
12:53 PM 78.1 °F 59.0 °F 52% 30.04 in 10.0 mi Variable 5.8 mph - N/A   Partly Cloudy
1:53 PM 75.0 °F 59.0 °F 57% 30.04 in 10.0 mi NW 3.5 mph - N/A   Mostly Cloudy
2:53 PM 75.9 °F 57.0 °F 52% 30.02 in 10.0 mi Variable 3.5 mph - N/A   Mostly Cloudy
3:53 PM 78.1 °F 55.0 °F 45% 30.01 in 10.0 mi Variable 5.8 mph - N/A   Overcast
4:53 PM 79.0 °F 53.1 °F 40% 30.01 in 10.0 mi Variable 5.8 mph - N/A   Partly Cloudy
5:53 PM 78.1 °F 55.0 °F 45% 30.02 in 10.0 mi Variable 4.6 mph - N/A   Clear
6:53 PM 75.0 °F 61.0 °F 62% 30.03 in 10.0 mi SW 3.5 mph - N/A   Clear
7:53 PM 68.0 °F 63.0 °F 84% 30.05 in 10.0 mi Calm Calm - N/A   Clear
8:53 PM 64.0 °F 61.0 °F 90% 30.07 in 10.0 mi Calm Calm - N/A   Clear
9:53 PM 62.1 °F 60.1 °F 93% 30.08 in 9.0 mi Calm Calm - N/A   Clear
10:53 PM 61.0 °F 59.0 °F 93% 30.08 in 9.0 mi Calm Calm - N/A   Clear
11:53 PM 59.0 °F 57.0 °F 93% 30.08 in 10.0 mi Calm Calm - N/A   Clear